GEFSMA_500_meanwind_192.txt.gz
Wind_Speed
53 53 54 54 54 53 53 52 52 51 51 50 49 47 46 44 43 42 41 40 38 37 35 34 33 33 32 31 31 31 30 30 30 30 30 30 31 32 32 33 33 34 34
55 55 55 56 56 56 55 55 55 54 54 52 51 50 48 46 45 44 44 42 40 39 37 37 36 35 34 33 33 33 32 32 32 32 32 32 33 33 34 34 35 35 36
58 58 58 58 58 58 58 57 57 57 56 55 54 52 50 49 48 47 45 44 42 41 40 39 38 37 36 36 35 35 34 34 34 34 34 34 34 35 35 35 36 36 36
60 60 61 60 60 60 60 60 59 59 58 57 56 55 53 52 51 50 47 46 45 43 42 41 41 40 39 38 37 37 36 36 35 35 36 36 36 36 36 37 37 37 37
63 63 63 63 63 63 62 61 61 61 61 60 59 57 56 55 54 52 50 49 47 46 45 44 43 42 40 39 39 39 38 37 37 37 37 37 37 37 37 38 38 38 39
66 66 65 65 64 64 63 63 63 63 63 62 61 60 59 58 57 54 53 51 49 48 47 46 44 43 42 41 41 40 39 39 38 39 38 38 38 38 39 39 39 39 40
66 66 66 66 65 64 63 63 63 63 63 63 63 63 61 61 59 57 56 54 52 50 49 48 47 45 44 43 43 41 41 41 40 40 40 39 39 40 40 40 40 41 41
63 64 64 64 63 64 63 63 63 64 63 63 64 64 63 61 60 59 58 57 55 53 51 49 48 47 46 45 45 44 43 42 42 41 41 40 40 40 40 41 41 42 42
59 60 62 63 63 63 62 62 63 64 62 62 64 64 63 62 61 60 59 58 57 56 54 51 49 48 48 47 46 45 44 44 43 42 41 41 42 41 41 42 42 43 42
56 57 59 61 61 62 62 62 62 63 63 62 62 62 63 62 62 60 59 59 59 58 56 53 51 50 49 49 47 46 45 45 44 44 43 42 43 42 42 42 42 43 43
54 54 56 59 60 61 60 60 61 61 62 62 62 63 62 62 61 61 60 60 60 59 58 56 54 52 51 50 49 48 47 46 46 45 44 43 43 42 42 42 42 43 43
52 53 54 56 58 59 59 59 60 61 60 61 62 63 62 61 61 60 60 60 60 59 59 58 56 54 51 51 50 48 47 47 47 45 44 44 44 43 43 42 42 43 44
50 51 52 54 56 58 59 59 60 61 60 60 61 62 62 60 60 60 59 59 59 59 59 58 55 53 51 50 50 48 47 46 45 44 44 44 44 44 43 42 43 43 44
49 50 52 54 55 57 58 59 60 61 60 60 61 61 60 60 59 59 59 59 59 58 58 57 55 53 51 50 49 48 47 46 45 44 44 44 44 44 44 43 43 43 44
48 51 51 52 54 55 56 57 58 59 60 60 60 60 58 58 57 57 57 58 58 57 57 55 55 53 51 49 48 48 46 45 44 44 44 44 44 44 43 43 43 43 44
49 50 51 51 53 54 53 54 57 59 60 59 59 58 58 56 55 55 55 55 55 54 54 54 53 51 51 49 47 47 45 44 44 43 43 44 44 43 42 42 43 43 44
48 49 50 51 51 51 52 52 53 55 58 58 57 56 56 55 53 54 54 54 53 53 53 51 50 49 49 48 47 47 45 44 43 42 43 44 44 42 42 41 42 43 44
46 47 49 50 51 51 51 49 49 52 54 54 54 54 54 53 52 52 52 52 50 50 51 50 48 47 46 46 46 45 44 43 42 42 42 43 42 41 41 41 42 43 43
45 45 47 48 49 49 49 48 47 49 50 51 52 52 52 51 50 49 50 49 48 48 48 48 47 45 44 44 45 44 43 43 42 41 41 41 40 40 40 40 41 42 42
43 43 44 45 46 46 47 47 46 47 47 48 48 48 49 48 47 46 45 46 45 45 46 46 45 43 43 42 43 43 42 42 41 41 40 39 39 40 40 40 41 41 41
41 40 41 41 41 42 44 45 44 44 43 44 44 44 45 45 44 44 43 42 43 43 44 45 44 41 40 40 41 41 42 41 39 38 37 37 37 38 40 39 39 39 39
38 37 37 37 37 38 39 40 40 39 40 42 41 42 42 42 43 43 42 41 41 41 41 43 43 39 37 37 38 39 39 39 37 36 36 36 37 38 38 38 38 38 37
33 32 32 32 33 34 34 35 34 35 36 39 40 40 39 39 40 41 40 40 40 40 41 41 40 38 36 36 37 37 37 37 36 36 35 36 37 36 36 36 36 36 37
31 29 29 29 29 29 29 30 31 32 34 36 37 38 37 37 38 39 39 38 38 38 39 39 38 36 34 35 36 37 36 36 35 34 34 34 34 33 33 33 34 35 36
29 28 27 26 26 26 27 28 31 31 32 32 34 34 34 34 37 37 37 36 36 36 36 35 36 35 33 32 34 35 34 33 32 32 32 31 30 30 31 32 33 34 35
26 25 25 24 23 23 25 27 30 29 28 28 30 31 31 32 33 34 34 34 34 33 33 34 33 33 32 30 31 31 31 30 29 30 29 28 28 29 30 31 32 33 34

GEFSMA_500_meanwind_198.txt.gz
Wind_Speed
49 49 50 49 50 51 51 51 52 52 51 51 50 50 49 48 47 46 46 45 45 44 43 42 42 41 40 39 38 37 37 36 35 35 34 34 34 34 34 34 33 34 34
51 51 51 52 52 53 53 53 53 54 54 54 53 52 52 51 50 49 48 48 47 46 46 45 44 43 42 41 40 39 38 38 37 37 36 36 36 35 36 36 35 35 36
53 53 53 53 54 55 55 55 55 55 56 56 56 55 54 54 52 51 51 50 50 49 48 48 47 45 44 43 42 41 40 40 39 39 38 38 38 37 37 37 37 37 37
54 55 56 56 56 57 58 58 58 58 58 57 57 57 57 57 55 54 54 53 52 51 50 49 49 47 47 46 45 44 42 42 41 41 40 40 39 39 38 38 39 38 38
55 56 58 59 59 60 60 61 61 61 61 60 60 60 59 59 58 57 56 55 54 53 52 51 50 49 48 48 47 46 45 44 43 42 41 41 41 41 40 40 40 39 39
56 57 59 60 61 63 63 63 64 64 63 63 62 62 61 61 60 59 58 57 56 54 53 53 52 51 50 50 50 49 47 46 45 44 44 44 44 42 41 41 41 41 41
57 58 60 61 63 64 65 66 66 66 65 65 64 63 62 62 61 60 59 59 57 56 56 55 55 54 53 52 51 50 49 49 47 45 46 46 44 42 43 42 41 41 42
58 59 60 61 62 63 64 65 66 66 66 66 66 65 64 62 62 61 61 60 59 58 58 57 57 56 54 54 53 51 50 49 48 48 48 47 45 44 44 43 42 42 42
58 58 59 59 60 61 62 62 64 65 65 65 66 65 65 63 61 61 61 60 60 59 59 59 58 57 56 55 55 53 52 51 50 50 48 47 46 46 45 44 44 43 43
56 57 57 57 57 58 59 59 60 61 63 63 63 64 64 64 63 61 60 61 60 59 59 59 59 58 58 57 56 55 53 52 52 51 49 49 47 46 45 44 44 44 44
55 55 56 56 55 55 55 56 57 57 59 59 59 60 61 61 61 61 59 59 60 59 59 59 59 58 58 58 57 56 55 54 53 52 50 49 48 48 47 46 45 45 45
54 55 55 55 55 54 54 53 53 54 55 56 56 57 59 58 59 60 59 58 58 59 59 59 60 58 58 58 57 57 56 55 54 52 50 50 49 49 48 47 46 45 45
53 54 54 53 53 53 53 53 53 53 54 55 56 56 57 58 58 59 58 57 57 57 59 59 59 59 59 58 58 58 56 54 54 53 52 52 51 50 48 48 47 46 46
52 52 52 51 51 52 52 53 53 53 54 55 56 56 57 57 57 58 58 58 57 55 56 57 57 57 57 57 57 57 56 54 54 53 53 53 51 49 49 47 47 47 47
50 49 50 49 49 51 52 53 53 53 54 55 56 57 57 58 58 59 58 57 56 54 54 54 54 55 55 56 55 55 54 54 53 52 52 52 50 50 48 47 47 47 46
48 48 48 49 50 50 52 53 53 53 54 54 55 56 56 57 58 57 57 56 55 54 52 51 53 53 54 54 52 52 53 52 52 51 51 50 49 48 47 47 46 47 46
48 48 49 49 50 51 51 52 52 53 54 55 55 55 55 55 56 56 56 56 54 54 51 50 50 50 51 51 51 51 51 51 50 49 49 49 48 46 47 46 45 46 46
49 48 48 48 49 49 49 50 50 51 52 53 54 55 55 54 54 54 55 55 54 53 51 49 48 48 48 48 49 49 49 49 49 48 47 47 46 45 45 44 44 44 45
47 47 47 47 47 47 47 49 50 49 50 51 52 52 51 53 53 53 53 53 52 51 50 47 45 45 45 46 47 47 47 46 46 45 45 45 44 43 43 44 44 44 43
47 47 46 46 46 46 47 47 47 47 47 48 48 49 48 48 50 51 50 50 49 50 47 46 45 43 41 42 43 43 43 43 42 41 41 41 41 41 42 42 43 43 43
46 46 45 45 44 44 43 43 44 43 44 44 45 45 45 45 46 47 48 47 47 47 45 44 43 41 39 40 40 39 39 41 40 40 40 39 40 40 40 40 42 42 41
45 43 42 41 40 40 40 40 41 41 41 41 42 42 42 41 42 43 43 44 43 43 42 42 41 39 37 38 39 38 36 37 37 37 37 38 38 38 39 40 40 40 38
43 41 40 39 38 38 38 37 38 38 37 37 37 37 37 37 39 40 41 42 41 41 41 40 39 38 36 36 37 35 34 35 35 36 36 37 38 37 37 38 37 37 37
40 40 39 37 36 36 36 35 34 34 34 34 33 33 33 33 34 36 36 38 39 38 37 36 36 36 35 35 34 33 33 34 34 34 35 36 36 35 35 35 35 34 34
38 37 36 35 34 32 32 32 32 30 29 29 30 31 31 31 32 32 33 35 35 34 35 34 34 34 33 33 33 33 33 33 33 32 32 33 33 33 32 32 32 32 33
34 33 33 32 30 29 28 27 27 26 25 25 27 27 28 28 29 29 30 31 32 32 32 32 32 32 32 33 33 33 33 32 32 31 30 31 31 30 28 29 30 31 31

GEFSMA_500_meanwind_204.txt.gz
Wind_Speed
41 42 43 43 44 44 45 46 46 47 47 48 49 48 47 47 47 47 46 46 46 45 44 43 43 43 42 42 42 42 41 41 40 40 39 39 38 38 38 38 37 36 36
42 43 44 45 46 47 48 48 49 50 51 51 51 51 50 50 49 49 49 49 49 49 47 46 46 46 45 45 44 44 43 42 42 42 41 41 40 39 39 39 39 38 38
43 45 46 46 48 49 50 50 51 52 53 54 54 54 53 53 52 52 52 52 51 51 50 50 49 48 48 47 46 46 45 44 44 44 43 42 42 41 41 42 40 40 39
45 46 47 48 49 50 52 52 53 54 55 55 56 56 56 56 56 55 55 54 54 53 53 52 52 51 50 50 49 48 47 46 46 46 45 45 44 44 44 43 41 41 41
46 48 48 49 50 52 53 54 55 56 56 57 57 57 58 58 58 58 57 57 56 56 55 55 54 53 52 51 51 50 49 49 48 47 47 47 46 46 45 44 43 43 43
49 50 51 52 54 55 56 57 57 58 59 60 59 60 60 60 61 61 60 59 58 58 57 56 56 54 53 53 53 52 51 51 50 49 48 48 48 47 47 46 45 46 45
50 52 53 54 56 57 58 58 58 59 61 62 63 63 63 63 63 63 62 62 61 60 59 58 58 56 56 55 54 54 53 52 51 51 49 49 50 49 49 48 47 47 46
53 54 56 56 57 58 59 60 60 60 60 63 64 64 64 64 64 64 64 64 63 63 62 61 60 59 58 57 56 55 55 53 53 52 51 51 50 50 49 48 48 48 47
54 55 56 57 58 59 59 60 60 60 60 61 63 64 65 65 65 64 65 65 65 65 64 63 62 62 60 59 58 56 56 55 55 55 53 53 52 51 50 50 50 49 48
54 55 56 57 58 59 59 59 59 60 60 61 61 62 64 65 65 64 63 63 64 64 64 64 64 63 62 60 59 58 58 58 58 57 56 55 53 52 52 51 50 50 49
55 56 57 58 58 58 59 59 59 59 59 59 58 58 58 60 61 62 61 60 61 62 63 64 64 64 63 62 61 59 59 60 59 58 57 56 56 55 54 52 51 51 50
55 56 57 57 57 57 58 57 57 57 57 57 56 56 56 56 57 58 58 58 58 58 60 62 63 63 62 62 62 62 61 61 60 59 58 58 57 56 56 54 52 51 51
55 55 56 56 56 57 57 57 56 56 56 56 55 55 55 55 55 54 55 56 57 57 58 59 60 61 61 62 62 62 62 61 60 60 59 58 58 57 56 54 53 52 51
54 54 55 55 55 56 56 56 56 55 55 55 55 54 53 53 52 52 54 55 55 55 55 55 56 57 58 60 60 60 60 59 59 59 58 58 57 56 55 54 53 51 51
54 54 54 55 55 55 54 54 55 55 54 54 54 54 53 52 52 53 54 55 55 54 52 51 52 53 55 56 56 57 58 58 58 58 57 56 56 55 54 53 52 51 51
55 55 56 56 55 54 54 55 55 54 54 53 53 53 53 53 53 54 55 55 54 54 52 50 50 50 53 53 53 55 55 56 57 56 55 55 54 53 53 52 52 51 50
56 57 57 56 54 54 54 55 55 55 54 54 53 53 53 53 53 53 53 53 54 52 51 49 49 49 50 51 51 51 52 53 54 54 53 52 52 51 51 50 50 50 50
56 57 56 55 54 54 54 54 54 54 53 53 53 53 52 53 53 52 52 51 52 51 51 49 48 47 47 48 50 49 49 49 50 50 49 49 49 48 48 48 49 48 47
55 55 54 54 54 53 53 53 53 52 53 52 52 52 51 51 50 50 51 50 49 49 49 48 46 45 44 44 45 46 46 46 46 46 45 45 45 45 46 46 46 46 45
53 53 53 54 54 54 54 53 52 51 51 50 50 50 49 49 48 49 49 48 47 47 46 45 44 44 42 41 41 42 42 42 42 43 42 42 41 42 43 43 43 43 43
52 52 53 53 54 54 54 52 51 50 49 47 47 47 46 46 47 47 47 45 45 44 43 43 42 42 41 40 39 39 40 39 40 41 41 41 40 40 40 39 39 40 40
52 52 52 53 54 53 51 49 48 47 45 43 42 42 42 43 43 42 43 43 42 42 42 40 40 39 38 38 38 37 37 37 37 38 39 38 37 37 36 36 37 38 37
51 51 52 52 51 48 46 44 44 42 40 39 39 38 38 38 38 38 37 38 37 37 38 39 38 37 36 36 37 36 35 35 35 35 34 33 33 33 33 33 34 35 35
50 50 49 49 47 44 43 42 41 40 38 36 35 34 34 33 33 33 33 32 32 32 34 36 35 34 34 34 33 32 33 33 33 32 31 31 31 32 33 33 33 33 34
48 47 46 44 42 41 41 40 38 36 33 32 31 30 30 29 29 30 30 28 28 28 30 31 31 31 31 32 32 30 30 32 31 29 28 29 29 30 30 31 32 33 33
45 43 42 41 39 38 37 35 34 32 30 28 26 25 25 24 24 25 25 24 23 23 25 26 28 29 28 29 30 28 27 27 28 27 26 27 27 27 28 28 30 31 30

GEFSMA_500_meanwind_210.txt.gz
Wind_Speed
34 35 36 36 37 38 38 39 40 41 41 42 43 43 44 45 45 45 44 44 44 45 46 46 46 46 46 45 45 44 44 44 43 43 42 42 42 41 40 40 39 38 37
35 36 37 37 38 39 40 41 41 42 43 44 45 45 46 46 47 47 47 47 48 48 48 48 48 49 49 49 48 47 46 46 45 45 45 44 43 43 42 42 41 40 40
36 37 38 39 40 41 42 43 43 44 45 46 47 47 48 48 49 50 50 51 51 51 51 51 51 51 51 51 50 49 49 48 48 47 46 46 45 45 44 44 43 43 42
38 39 40 41 42 43 44 44 45 46 47 47 48 49 50 51 51 52 53 53 54 54 54 55 55 54 54 54 54 53 52 51 51 50 49 49 48 47 46 46 46 45 45
39 40 41 42 43 44 45 46 47 48 49 50 51 51 52 53 54 55 55 56 57 57 58 57 57 57 57 57 56 56 55 54 53 53 52 51 50 50 48 48 47 47 46
41 41 42 43 44 45 46 47 48 50 52 53 54 54 55 56 57 57 58 59 59 60 61 61 61 61 61 60 60 59 58 57 56 55 55 53 52 51 50 49 49 49 48
42 43 44 45 46 47 48 50 51 52 53 54 56 56 57 58 59 60 61 61 61 62 63 64 64 63 63 63 63 62 61 60 59 57 57 55 54 53 53 51 51 50 50
43 45 45 46 47 49 50 51 52 53 54 56 58 59 59 60 60 61 62 62 63 63 64 64 65 65 64 64 64 63 63 62 60 59 58 57 57 55 55 54 54 53 51
45 46 47 48 48 50 51 52 53 54 55 56 57 59 60 61 61 60 60 61 61 62 63 64 65 66 66 65 64 64 64 63 62 61 61 59 59 57 56 56 56 55 54
46 47 48 49 50 51 52 53 54 55 56 57 58 59 60 61 62 60 58 58 59 59 60 61 62 63 64 65 64 64 64 64 63 63 63 60 60 59 59 58 56 55 54
47 48 49 50 51 52 52 53 54 55 56 57 57 58 59 59 60 60 58 56 56 56 56 57 59 61 63 64 65 65 65 65 65 65 65 63 62 61 60 59 57 57 56
48 49 50 51 51 52 53 53 54 55 56 56 56 56 57 57 58 59 58 56 55 55 56 57 57 58 61 63 64 65 65 65 66 67 66 64 63 62 61 61 59 58 57
49 49 50 51 52 53 53 53 54 54 54 55 56 56 56 57 57 57 57 56 56 56 56 56 56 58 59 61 62 63 64 65 64 65 65 64 63 62 62 62 60 59 57
49 49 50 51 52 53 53 54 54 54 55 55 56 56 56 56 57 57 57 57 58 56 55 54 56 57 58 59 60 61 61 62 62 62 63 63 63 61 61 60 60 58 56
50 50 51 52 53 54 55 55 55 56 56 56 56 56 57 57 57 57 58 58 59 58 55 54 54 55 57 58 58 58 58 59 58 59 60 60 61 60 59 58 58 57 55
50 51 52 53 54 55 56 57 57 57 57 57 56 57 57 57 58 58 57 57 58 57 55 53 54 54 54 55 55 56 56 56 56 56 56 58 58 58 58 57 57 57 55
51 52 53 54 55 56 57 58 58 57 57 56 57 57 57 57 57 57 56 56 56 55 55 53 53 52 52 52 52 53 53 52 52 52 52 54 55 56 56 55 55 54 53
52 52 53 54 55 56 57 58 57 56 56 56 57 57 57 57 56 55 55 54 53 53 54 52 50 48 48 48 49 49 49 50 50 49 48 49 51 52 52 53 52 51 51
52 53 54 54 55 56 57 57 56 56 56 56 56 56 55 55 54 53 52 51 50 50 50 49 46 44 44 44 44 45 46 46 46 46 46 46 46 48 49 49 50 49 49
53 53 54 55 56 56 56 55 55 56 55 55 54 54 53 52 50 49 48 47 47 47 46 44 41 39 39 39 41 42 43 43 43 44 45 44 44 45 46 46 45 46 46
53 53 54 55 55 56 55 55 55 55 54 53 53 52 50 48 47 46 45 44 44 42 41 39 37 36 35 35 37 38 38 40 41 41 41 41 41 41 42 42 42 42 42
52 53 54 54 54 54 54 54 53 52 52 51 50 49 47 46 45 43 42 41 40 39 37 36 35 35 33 32 32 33 34 35 36 36 37 37 37 37 37 37 37 37 37
51 52 53 53 53 52 52 51 50 50 49 48 48 46 43 42 41 40 38 37 36 36 35 35 33 32 31 30 29 29 30 31 32 33 33 32 32 32 33 33 34 34 34
51 51 51 51 51 49 49 47 46 46 46 45 43 40 38 37 38 37 34 33 33 32 32 32 30 29 28 28 27 26 27 28 29 28 29 29 29 28 28 29 30 31 32
49 49 49 48 47 45 45 44 44 43 42 40 37 36 36 36 34 33 32 30 29 28 28 27 27 27 26 26 26 25 24 23 24 24 25 25 26 26 25 26 27 29 30
48 48 46 45 44 42 42 42 42 41 39 37 35 34 34 32 31 31 29 28 26 25 24 22 23 23 23 23 23 22 21 21 21 22 22 23 23 24 23 24 25 26 28